Flag for Germany Weather past 2 weeks in Dietzenbach, Hesse, Germany

Now
67 °F

Sprinkles. Low clouds.


Feels Like: 67 °F
Forecast: 65 / 77 °F
Wind: 2 mph from West

Location: Frankfurt / M-Flughafen

Current Time: Jul 29, 2014 at 9:48:24 PM

Latest Report: Jul 29, 2014 at 9:00 PM


Visibility: 5 mi

Pressure: 29.77 "Hg

Humidity: 93%

Dew point: 65 °F

Location of DietzenbachLocation

Historic Weather in Dietzenbach — Graph

°F

Dietzenbach temperature yesterday

Maximum temperature yesterday: 85 °F (at 4:00 PM)
Minimum temperature yesterday: 65 °F (at 6:00 AM)
Average temperature yesterday: 73 °F

Past Weeks' High & Low Weather Summary

 TemperatureHumidityPressure
High93 °F (Jul 19, 5:00 PM)94% (Jul 29, 4:00 AM)30.19 "Hg (Jul 29, 4:00 AM)
Low59 °F (Jul 26, 5:00 AM)22% (Jul 18, 6:00 PM)29.74 "Hg (Jul 29, 3:00 PM)
Average73 °F64%29.96 "Hg
* Reported Jul 14 9:00 PM — Jul 29 9:00 PM, Dietzenbach, Weather by CustomWeather, © 2014

Note: Actual official high and low records may vary slightly from our data, if they occured in-between our weather recording intervals... More about our weather records

Advertising

Dietzenbach weather history for previous 24 hours

 ConditionsComfort  
Time TempWeatherWind HumidityBarometerVisibility
9:00 PM
Jul 29
67 °FSprinkles. Low clouds.2 mph93%29.77 "Hg5 mi
8:00 PM68 °FLight rain. Low clouds.3 mph91%29.75 "Hg11 mi
7:00 PM69 °FThundershowers. Overcast.1 mph88%29.74 "Hg7 mi
6:00 PM70 °FThundershowers. Overcast.5 mph86%29.75 "Hg2 mi
4:00 PM75 °FSprinkles. Overcast.1 mph80%29.74 "Hg11 mi
3:00 PM74 °FSprinkles. Overcast.2 mph75%29.74 "Hg14 mi
2:00 PM75 °FPartly sunny.5 mph68%29.76 "Hg15 mi
1:00 PM77 °FPartly sunny.2 mph63%29.77 "Hg15 mi
12:00 PM76 °FPartly sunny.5 mph71%29.78 "Hg15 mi
11:00 AM73 °FOvercast.3 mph77%29.78 "Hg15 mi
10:00 AM72 °FScattered clouds.3 mph77%29.78 "Hg12 mi
9:00 AM71 °FPartly sunny.2 mph84%29.78 "Hg9 mi
8:00 AM69 °FScattered clouds.1 mph89%29.77 "Hg10 mi
7:00 AM67 °FPartly sunny.1 mph91%29.76 "Hg11 mi
6:00 AM67 °FPartly sunny.2 mph91%29.77 "Hg9 mi
5:00 AM66 °FOvercast.2 mph91%29.77 "Hg10 mi
4:00 AM66 °FOvercast.1 mph94%29.78 "Hg10 mi
3:00 AM66 °FOvercast.1 mph92%29.79 "Hg10 mi
2:00 AM67 °FOvercast.1 mph92%29.80 "Hg10 mi
1:00 AM67 °FPassing clouds.2 mph92%29.79 "Hg16 mi
12:00 AM67 °FOvercast.3 mph90%29.79 "Hg16 mi
10:00 PM
Jul 28
71 °FOvercast.2 mph77%29.80 "Hg16 mi
9:00 PM72 °FPartly sunny.3 mph71%29.77 "Hg22 mi
Weather by CustomWeather, © 2014

See weather overviewHow to use our weather pages